Regional Weather Roundup
Issued by NWS

Home | Current Version | Previous Version | Text Only | Print | Product List | Glossary On
Versions: 1 2 3 4 5 6 7 8 9 10 11 12 13 14 15 16 17 18 19 20 21 22 23 24 25 26 27 28 29 30 31 32 33 34 35 36 37 38 39 40 41 42 43 44 45 46 47 48 49 50
020
ASUS43 KMPX 221310
RWRMN
WEATHER ROUNDUP FOR MINNESOTA
NATIONAL WEATHER SERVICE TWIN CITIES/CHANHASSEN MN
800 AM CDT MON MAY 22 2017


NOTE: "FAIR" INDICATES FEW OR NO CLOUDS BELOW 12,000 FEET WITH NO
SIGNIFICANT WEATHER AND/OR OBSTRUCTIONS TO VISIBILITY. N/A MEANS
CURRENT SKY AND/OR WEATHER CONDITIONS ARE NOT AVAILABLE.

MNZ060>063-068>070-221400-
   Twin Cities Metro

CITY           SKY/WX    TMP DP  RH WIND       PRES   REMARKS
TWIN CITIES    MOSUNNY   50  41  71 W6        29.87S
ST PAUL        MOSUNNY   50  44  80 SW6       29.88S
CRYSTAL        MOSUNNY   50  41  71 W8        29.85S
BLAINE         MOSUNNY   52  46  82 W7        29.85S
LAKEVILLE      SUNNY     50  43  76 W5        29.88R
EDEN PRAIRIE   SUNNY     49  43  80 W7        29.87R
SOUTH ST PAUL  MOSUNNY   51  43  74 SW6       29.87S
LAKE ELMO      FAIR      50  45  81 SW6       29.87S
$$
MNZ001>005-007-008-013>017-022>024-027-028-221400-
   Northwest Minnesota

CITY           SKY/WX    TMP DP  RH WIND       PRES   REMARKS
BEMIDJI        CLOUDY    44  43  95 W9        29.78S
HALLOCK        MOSUNNY   48  46  93 N15       29.82S
ROSEAU         PTSUNNY   46  43  87 NW13      29.78S
WARROAD        CLOUDY    45  41  87 NW8       29.77S
THIEF RVR FALL CLOUDY    47  44  90 NW16      29.80S
CROOKSTON      CLOUDY    48  45  87 NW14G21   29.82S
FOSSTON        CLOUDY    45  43  93 W8        29.81S
DETROIT LAKES  LGT RAIN  45  43  93 W6        29.84S
MOORHEAD       CLOUDY    46  43  87 W7        29.86S
PARK RAPIDS    CLOUDY    46  42  86 W12       29.80S
MAHNOMEN       CLOUDY    44  42  93 W10       29.82S
$$
MNZ006-009>011-018-025>026-221400-
   North Central Minnesota

CITY           SKY/WX    TMP DP  RH WIND       PRES   REMARKS
BAUDETTE       CLOUDY    45  42  89 NW8       29.74F
FLAG ISLAND    CLOUDY    45  43  93 NW17      29.75S
INTL FALLS     LGT RAIN  45  43  93 W6        29.72S FOG
WASKISH        CLOUDY    46  43  87 NW9G17    29.76S FOG
BIG FORK       DRIZZLE   45  43  93 W3        29.74S
LONGVILLE      LGT RAIN  45  43  93 W12       29.77S
GRAND RAPIDS   LGT RAIN  45  43  93 W8        29.77S FOG
CRANE LAKE     CLOUDY    43  43 100 W6        29.73S FOG
ORR            CLOUDY    45  41  87 W6        29.70S
COOK           CLOUDY    45  43  93 W5        29.73S FOG
WALKER         CLOUDY    44  42  95 W8        29.78S
$$
MNZ012-019>021-037-221400-
   Northeast Minnesota

CITY           SKY/WX    TMP DP  RH WIND       PRES   REMARKS
DULUTH         CLOUDY    46  44  93 W9        29.75S
ELY            CLOUDY    45  43  93 W7        29.71S FOG
HIBBING        CLOUDY    44  43  96 W6        29.73S FOG
EVELETH        CLOUDY    45  43  93 W5        29.74S FOG
DULUTH HARBOR  CLOUDY    48  45  87 SW13      29.77S
TWO HARBORS    PTSUNNY   52  45  76 W6        29.72S
SILVER BAY     CLOUDY    46  45  93 SW3       29.71S
GRAND MARAIS     N/A     41  40  96 W10       29.71S
G MARAIS ARPRT CLOUDY    45  39  81 SW6       29.69S
$$
MNZ029>031-032-039>041-046>048-054>057-064-221400-
   West Central Minnesota

CITY           SKY/WX    TMP DP  RH WIND       PRES   REMARKS
FERGUS FALLS   MOSUNNY   43  43 100 NW6       29.86F
WHEATON        MOSUNNY   45  41  87 W5        29.90F
MORRIS         SUNNY     46  43  87 NW6       29.87S
ALEXANDRIA     PTSUNNY   47  41  80 NW12      29.86F
ELBOW LAKE     FAIR      44  42  95 CALM      29.87S
WADENA         DRIZZLE   45  41  87 NW9       29.83S
GLENWOOD       CLOUDY    46  43  87 W9        29.87S
APPLETON       SUNNY     48  43  81 CALM      29.88S
BENSON         SUNNY     48  43  81 N5        29.90R
ORTONVILLE     SUNNY     46  43  87 N6        29.88S
MADISON        SUNNY     50  48  93 CALM      29.89S
WILLMAR        FAIR      46  43  87 W6        29.89S
$$
MNZ033>034-036-042>043-049>051-058-059-221400-
   Central Minnesota

CITY           SKY/WX    TMP DP  RH WIND       PRES   REMARKS
ST CLOUD       MOSUNNY   49  43  80 NW12      29.84S
SAUK CENTRE    PTSUNNY   46  41  82 W9        29.86S
PAYNESVILLE    CLOUDY    45  45 100 W6        29.87S
AITKIN         CLOUDY    46  41  81 W5        29.77F
PINE RIVER     DRIZZLE   45  43  93 W7        29.83S
BRAINERD       CLOUDY    45  42  89 W9        29.81S
STAPLES        PTSUNNY   45  43  93 W12       29.82S
LONG PRAIRIE   FAIR      45  41  87 SW9       29.84F
LITTLE FALLS   MOSUNNY   45  41  87 W8        29.83F
LITCHFIELD     SUNNY     50  45  81 W6        29.87F
BUFFALO        PTSUNNY   48  42  79 SW5       29.87S
MAPLE LAKE     PTSUNNY   49  44  83 SW3       29.87S
HUTCHINSON     SUNNY     47  44  88 W5        29.89S
$$
MNZ037-044-045-052-053-221400-
   East Central Minnesota

CITY           SKY/WX    TMP DP  RH WIND       PRES   REMARKS
PRINCETON      SUNNY     50  45  81 W7        29.84S
MORA           MOSUNNY   45  43  93 W6        29.83F
CAMBRIDGE      SUNNY     50  43  76 W6        29.82S
RUSH CITY      SUNNY     48  43  82 W7        29.83S
MOOSE LAKE     CLOUDY    46  41  81 W9        29.77S
HINCKLEY       PTSUNNY   46  45  93 SW9       29.81F
CLOQUET        CLOUDY    46  41  81 SW7       29.76S
MCGREGOR       CLOUDY    45  43  93 W6        29.78S
$$
MNZ071>073-080-081-089-090-097-098-221400-
   Southwest Minnesota

CITY           SKY/WX    TMP DP  RH WIND       PRES   REMARKS
MONTEVIDEO     SUNNY     50  45  81 CALM      29.89S
CANBY          MOSUNNY   49  45  87 CALM      29.89F
MARSHALL       SUNNY     49  44  83 NW6       29.89R
REDWOOD FALLS  SUNNY     49  43  80 CALM      29.88S
OLIVIA         SUNNY     50  45  81 W3        29.87S
PIPESTONE      SUNNY     50  43  76 CALM      29.88S
WINDOM         SUNNY     52  45  76 W7        29.88S
WORTHINGTON    CLOUDY    52  46  80 SW12      29.89S
JACKSON        CLOUDY    50  43  76 SW7       29.90R
TRACY          SUNNY     49  45  86 NW7       29.89S
SLAYTON        SUNNY     50  44  81 W8        29.89S
$$
MNZ065>067-074>077-082>085-091>093-221400-
   South Central Minnesota

CITY           SKY/WX    TMP DP  RH WIND       PRES   REMARKS
MANKATO          N/A     48  44  86 CALM      29.89S
NEW ULM        SUNNY     46  43  87 CALM      29.88S
ST JAMES       SUNNY     48  45  87 CALM      29.89S
FAIRMONT       CLOUDY    51  45  79 SW6       29.89S
GLENCOE        SUNNY     48  46  93 SW5       29.87S
FARIBAULT      SUNNY     48  45  87 S5        29.89S
OWATONNA       SUNNY     50  43  76 S8        29.89S
WASECA         SUNNY     46  43  87 S3        29.90S
ALBERT LEA     PTSUNNY   50  45  81 SW6       29.90R
$$
MNZ078>079-086>088-094>096-221400-
   Southeast Minnesota

CITY           SKY/WX    TMP DP  RH WIND       PRES   REMARKS
ROCHESTER      MOSUNNY   48  45  89 SW10      29.91S
RED WING       SUNNY     52  41  66 W3        29.87S
STANTON        SUNNY     50  44  79 S3        29.87F
DODGE CENTER   SUNNY     48  43  81 S6        29.89F
WINONA         SUNNY     52  43  71 CALM      29.91F
AUSTIN         PTSUNNY   48  45  87 SW5       29.90R
PRESTON        MOSUNNY   46  42  84 SW3       29.92S
$$
ABBREVIATIONS USED IN REMARKS
   TC - TEMPERATURES IN CELSIUS
  WCI - WIND CHILL INDEX
   HX - HEAT INDEX
  VSB - VISIBILITY
$$




USA.gov is the U.S. government's official web portal to all federal, state and local government web resources and services.